Location: Kuffner-Sternwarte
(48.2130°N, 16.2960°E)
Time: 08:49:38
(UTC+02:00)

COROT - Visible Passes

Search period start: 28 May 2017 00:00
Search period end: 07 June 2017 00:00
Orbit: 601 x 889 km, 90.0° (Epoch: 27 May)

Date Brightness Start Highest point End Pass type
(mag) Time Alt. Az. Time Alt. Az. Time Alt. Az.
28 May 8.3 22:45:35 10° NNW 22:48:28 17° WNW 22:51:14 10° WSW visible
29 May 7.2 22:01:42 10° NNW 22:05:54 36° W 22:09:53 10° SW visible
30 May 8.8 23:01:12 10° WNW 23:01:47 10° WNW 23:02:21 10° WNW visible
31 May 8.0 22:15:49 10° NNW 22:19:21 23° WNW 22:22:44 10° SW visible
01 Jun 6.5 21:32:16 10° N 21:36:40 53° W 21:40:49 10° SSW visible
02 Jun 8.4 22:30:19 10° NW 22:32:43 15° WNW 22:35:05 10° WSW visible
03 Jun 7.4 21:46:13 10° NNW 21:50:10 32° WNW 21:53:57 10° SW visible
05 Jun 8.2 22:00:22 10° NNW 22:03:36 20° WNW 22:06:44 10° WSW visible
